Location: Conchil
(50.3690°N, 1.6640°E)
Time: 01:21:58
(UTC+00:00)

Daily predictions for brighter satellites

Satellite Brightness Start Highest point End
(mag) Time Altitude Azimuth Time Altitude Azimuth Time Altitude Azimuth
ATLAS CENTAUR R/B 3.1 00:01:42 10° NW 00:03:28 24° NNE 00:06:08 10° E
Lacrosse 5 4.0 00:02:19 10° WSW 00:03:12 11° WSW 00:03:12 11° WSW
STARLINK-1226 3.5 00:00:38 10° WNW 00:03:43 56° N 00:06:48 10° E
STARLINK-1215 3.5 00:01:34 10° WNW 00:04:39 57° N 00:07:45 10° E
STARLINK-1225 3.8 00:00:38 10° WSW 00:04:47 74° NNW 00:08:57 10° ENE
Cosmos 292 Rocket 3.8 00:03:39 32° SW 00:05:52 76° WNW 00:10:45 10° NNE
STARLINK-1217 3.5 00:03:20 10° WNW 00:06:26 57° N 00:09:30 10° E
STARLINK-1229 3.4 00:04:16 10° WNW 00:07:21 58° N 00:10:27 10° E
STARLINK-1271 4.2 00:03:36 10° WNW 00:07:42 59° N 00:11:49 10° E
STARLINK-1104 4.0 00:04:14 10° WNW 00:08:09 42° SW 00:08:12 42° SSW
STARLINK-1270 3.4 00:05:07 10° WNW 00:08:13 58° N 00:11:19 10° E
S3M 4.4 00:03:35 10° NNW 00:09:31 52° W 00:12:36 28° SSW
STARLINK-1230 3.8 00:05:37 10° W 00:09:46 72° NNW 00:13:55 10° ENE
STARLINK-1189 3.4 00:06:57 10° WNW 00:10:04 59° N 00:13:10 10° E
Cosmos 1726 2.3 00:06:32 10° NNW 00:10:10 56° W 00:10:54 46° SW
STARLINK-1188 3.4 00:07:51 10° WNW 00:10:57 59° NNE 00:14:02 10° E
Cosmos 1655 Rocket 4.2 00:07:30 27° SSW 00:10:58 66° WNW 00:17:13 10° N
Cosmos 2058 Rocket 4.2 00:07:07 10° N 00:11:14 38° ENE 00:13:45 20° SE
STARLINK-1235 3.2 00:08:33 10° WNW 00:11:38 65° NNE 00:14:44 10° E
GEOS 3 Rocket 3.6 00:07:39 17° SE 00:11:45 84° NE 00:17:05 10° NW
STARLINK-1187 3.3 00:08:58 10° WNW 00:12:03 62° NNE 00:15:08 10° E
STARLINK-1154 4.2 00:08:36 10° WNW 00:12:42 59° N 00:16:49 10° E
Meteor 1-29 4.0 00:09:52 10° NNE 00:12:57 32° E 00:13:32 30° ESE
SL-27 R/B 4.0 00:10:07 10° NW 00:13:01 23° WSW 00:13:10 22° WSW
STARLINK-1144 4.1 00:09:14 10° WNW 00:13:00 39° SW 00:13:00 39° SW
STARLINK-1191 3.4 00:10:20 10° WNW 00:13:25 60° NNE 00:16:29 10° E
Cosmos 2228 3.1 00:09:36 10° N 00:13:54 70° E 00:15:32 36° SSE
COSMOS 2455 3.5 00:11:39 27° SSE 00:14:06 39° ESE 00:19:40 10° NE
SJ 16-02 4.2 00:11:55 10° NNE 00:14:16 14° NE 00:16:37 10° ENE
STARLINK-1221 3.3 00:11:12 10° WNW 00:14:17 60° NNE 00:17:22 10° E
STARLINK-1243 3.9 00:10:37 10° W 00:14:45 70° NNW 00:18:54 10° ENE
STARLINK-1222 3.3 00:12:06 10° WNW 00:15:11 61° NNE 00:18:15 10° E
Cosmos 2263 4.1 00:12:25 30° SSW 00:15:21 89° NW 00:21:00 10° NNE
STARLINK-1214 3.3 00:13:01 10° WNW 00:16:06 61° NNE 00:19:10 10° E
Meteor 2-15 Rocket 4.4 00:11:21 10° N 00:17:33 87° W 00:20:55 29° S
STARLINK-1197 4.2 00:13:35 10° WNW 00:17:41 59° N 00:21:48 10° E
STARLINK-1103 4.2 00:14:14 10° WNW 00:17:46 36° SW 00:17:46 36° SW
Cosmos 1953 3.0 00:14:39 10° NNW 00:18:27 42° W 00:19:26 35° SW
STARLINK-1236 3.9 00:15:37 10° W 00:19:45 68° NNW 00:23:53 10° ENE
Cosmos 1340 Rocket 3.1 00:16:09 10° NNW 00:20:05 53° W 00:21:08 40° SSW
STARLINK-1198 4.2 00:18:33 10° WNW 00:22:40 60° N 00:26:46 10° E
STARLINK-1101 4.4 00:19:14 10° WNW 00:22:33 33° SW 00:22:33 33° SW
Cosmos 1300 4.1 00:19:33 10° N 00:23:02 32° ENE 00:25:04 19° ESE
Cosmos 1271 Rocket 4.0 00:21:40 23° WSW 00:23:10 31° WNW 00:26:41 10° N
BREEZE M DEB (TANK) 4.2 00:26:49 16° E 00:26:49 16° E 00:27:32 10° E
COSMOS 2487 2.3 00:23:08 10° NNW 00:26:37 80° WSW 00:27:18 55° S
Cosmos 1833 4.4 00:21:53 10° NW 00:27:21 52° WSW 00:29:45 31° S
STARLINK-1199 4.1 00:23:34 10° WNW 00:27:41 61° N 00:31:49 10° E
Cosmos 1992 Rocket 4.0 00:25:15 30° SSW 00:27:51 77° WNW 00:33:06 10° NNE
STARLINK-1269 4.0 00:25:35 10° W 00:29:43 65° N 00:33:51 10° ENE
Cosmos 1707 4.2 00:29:05 22° WSW 00:30:37 29° WNW 00:34:05 10° N
STARLINK-1210 4.1 00:28:33 10° WNW 00:32:40 62° N 00:36:47 10° E
STARLINK-1200 4.0 00:30:36 10° W 00:34:43 64° N 00:38:51 10° ENE
Cosmos 1626 3.1 00:34:31 28° SE 00:35:45 37° E 00:39:13 10° NNE
Cosmos 1656 Rocket 3.7 00:33:52 29° SSW 00:36:54 86° WNW 00:42:31 10° NNE
Cosmos 1606 Rocket 3.5 00:32:57 10° NNW 00:37:15 67° W 00:38:48 38° SSW
STARLINK-1219 4.1 00:33:32 10° WNW 00:37:40 63° N 00:41:47 10° E
In-Cosmos 22 4.3 00:35:37 28° SW 00:38:19 60° WNW 00:43:34 10° N
STARLINK-1192 4.1 00:35:36 10° W 00:39:43 62° N 00:43:51 10° ENE
FALCON 9 R/B 3.9 00:38:25 24° S 00:40:27 27° SSE 00:53:11 10° ESE
STARLINK-1211 4.0 00:38:30 10° WNW 00:42:38 64° N 00:46:46 10° E
CZ-4 R/B 3.9 00:38:16 10° NNE 00:43:08 73° WNW 00:45:23 31° SSW
STARLINK-1244 4.1 00:40:35 10° W 00:44:41 61° N 00:48:49 10° ENE
Cosmos 2297 Rocket 3.6 00:41:37 10° NNW 00:46:53 38° NE 00:52:07 10° ESE
Cosmos 2292 Rocket 4.4 00:45:34 25° WSW 00:47:19 36° WNW 00:50:44 10° N
STARLINK-1245 4.0 00:43:31 10° WNW 00:47:39 65° N 00:51:47 10° E
MOZ.5/SAFIR/RUBIN 5/SL-8 4.5 00:44:15 16° SE 00:47:43 49° ENE 00:52:13 10° N
Meteor 2-21 4.5 00:45:34 27° S 00:49:07 79° E 00:55:20 10° NNE
STARLINK-1138 4.1 00:45:35 10° W 00:49:41 61° N 00:53:48 10° ENE
SL-4 R/B 3.0 00:49:12 32° S 00:50:28 39° SE 00:54:52 10° ENE
NOSS 5 (C) 4.3 00:48:29 10° NW 00:51:37 81° SW 00:53:30 27° SE
PSLV R/B 3.9 00:47:11 10° N 00:51:47 66° WNW 00:53:53 31° SW
STARLINK-1203 4.2 00:48:10 10° W 00:52:20 60° N 00:56:31 10° ENE
STARLINK-1233 4.0 00:48:29 10° WNW 00:52:38 67° NNE 00:56:46 10° E
Cosmos 1437 4.0 00:52:48 25° ESE 00:53:32 28° E 00:56:12 10° NNE
Aureole 3 4.5 00:51:26 10° NNW 00:54:27 23° W 00:55:01 22° WSW
Cosmos 1674 3.2 00:53:21 34° SW 00:54:34 48° WNW 00:58:14 10° N
STARLINK-1143 4.2 00:50:34 10° W 00:54:41 60° N 00:58:48 10° ENE
SL-19 R/B 4.3 00:51:29 10° NNE 00:56:52 70° ESE 01:00:03 26° S
STARLINK-1204 3.9 00:53:29 10° WNW 00:57:38 69° NNE 01:01:46 10° E
ATLAS CENTAUR R/B 1.6 00:56:56 34° S 00:58:32 56° SE 01:02:36 10° NE
Cosmos 1777 Rocket 3.9 00:53:30 10° NNW 00:58:43 74° WSW 01:01:54 24° SSE
Timation 2 Rocket 3.9 00:52:31 10° NNW 00:58:59 87° WSW 01:04:30 13° SSE
STARLINK-1241 4.2 00:55:34 10° W 00:59:40 59° N 01:03:47 10° ENE
BREEZE-M R/B 4.3 01:01:07 24° SSE 01:01:11 24° SSE 01:04:03 10° E
NOSS 3-4 (A) 3.4 00:57:31 24° SW 01:01:23 89° SSE 01:07:52 10° NE
NOSS 3-4 (C) 3.4 00:57:37 24° SW 01:01:29 89° SE 01:07:58 10° NE
SL-16 R/B 2.9 00:56:01 11° SSE 01:01:54 64° ENE 01:08:00 10° NNW
STARLINK-1238 3.9 00:58:26 10° WNW 01:02:35 71° NNE 01:06:44 10° E
Spot 1 4.3 01:00:54 28° S 01:03:18 74° WSW 01:08:12 10° NNW
STARLINK-1239 4.2 01:00:34 10° W 01:04:40 59° N 01:08:47 10° ENE
Cosmos 1455 4.4 01:02:22 10° NNE 01:05:21 22° ENE 01:08:18 10° ESE
ATLAS 3B R/B 2.7 00:59:25 10° NW 01:06:06 63° SW 01:12:42 11° SSE
STARLINK-1201 3.8 01:03:27 10° WNW 01:07:36 73° NNE 01:11:45 10° E
STARLINK-1240 4.2 01:05:34 10° W 01:09:40 59° N 01:13:47 10° E
CENTAUR R/B 3.7 01:02:22 10° NW 01:09:42 39° WSW 01:14:47 21° S
BREEZE-M DEB (TANK) 1.8 01:12:38 40° SSE 01:12:38 40° SSE 01:14:37 10° E
STARLINK-1206 3.8 01:08:26 10° WNW 01:12:35 75° NNE 01:16:44 10° ESE
Cosmos 1867 4.2 01:09:28 10° NW 01:14:28 37° WSW 01:16:45 26° SSW
STARLINK-1216 4.2 01:10:34 10° W 01:14:40 58° N 01:18:46 10° E
Meteor 2-21 Rocket 4.4 01:11:40 24° S 01:15:32 87° W 01:21:46 10° N
Cosmos 1892 Rocket 3.8 01:14:51 28° SW 01:16:57 56° WNW 01:21:18 10° N
Cosmos 1745 Rocket 4.2 01:12:45 20° S 01:17:03 68° E 01:23:09 10° NNE
STARLINK-1205 3.7 01:13:24 10° WNW 01:17:34 78° NNE 01:21:44 10° ESE
STARLINK-1237 4.2 01:15:34 10° W 01:19:40 58° N 01:23:46 10° E
RESURS DK-1 2.6 01:19:17 29° S 01:21:10 59° ESE 01:25:15 10° NE
STARLINK-1218 3.7 01:18:23 10° WNW 01:22:33 80° NNE 01:26:42 10° ESE
Cosmos 2227 Rocket 2.9 01:17:05 10° NNW 01:22:40 55° NE 01:28:14 10° SE
Cosmos 1356 Rocket 3.4 01:19:01 10° NNW 01:23:10 87° ENE 01:25:49 22° SSE
STARLINK-1202 4.2 01:20:34 10° W 01:24:40 59° N 01:28:47 10° E
Meteor 1-24 Rocket 3.7 01:22:03 25° SSW 01:25:11 70° WNW 01:30:37 10° N
Cosmos 2369 Rocket 3.8 01:21:30 10° W 01:26:18 27° NW 01:31:07 10° NNE
CZ-2D R/B 2.5 01:21:22 10° NNE 01:26:34 56° E 01:30:15 19° S
Helios 1B rocket 3.9 01:23:22 10° N 01:26:54 28° WNW 01:29:11 17° WSW
STARLINK-1254 3.6 01:23:22 10° WNW 01:27:32 83° NNE 01:31:42 10° ESE
ADEOS II 3.8 01:24:38 10° NE 01:29:00 26° E 01:33:21 10° SSE
ATLAS 2AS CENTAUR R/B 3.3 01:23:17 14° SW 01:30:21 70° NW 01:38:14 10° NE
STARLINK-1231 3.6 01:28:22 10° WNW 01:32:32 86° NNE 01:36:42 10° ESE
IKONOS-2 4.5 01:29:56 19° SSE 01:32:59 89° WSW 01:37:19 10° NNW
CZ-4C R/B 3.5 01:30:46 23° S 01:33:17 70° WSW 01:37:38 10° NNW
STARLINK-1228 3.4 01:31:02 10° WNW 01:34:13 41° SSW 01:37:23 10° SE
STARLINK-1246 4.2 01:30:32 10° WNW 01:34:39 59° N 01:38:46 10° E
STARLINK-1234 3.2 01:32:29 10° WNW 01:35:26 40° SSW 01:37:02 22° SSE
Resurs 1-4 Rocket 2.3 01:31:04 10° NNE 01:36:21 69° ESE 01:40:11 19° S
STARLINK-1212 3.0 01:33:48 10° WNW 01:36:50 49° SSW 01:39:51 10° SE
Cosmos 1943 Rocket 4.3 01:33:12 10° W 01:37:13 20° NW 01:41:16 10° N
STARLINK-1105 3.0 01:34:17 10° WNW 01:37:18 49° SSW 01:40:17 10° SE
STARLINK-1232 3.6 01:33:21 10° WNW 01:37:31 90° NNE 01:41:41 10° ESE
STARLINK-1209 3.4 01:34:45 10° WNW 01:37:43 37° SSW 01:38:42 28° S
STARLINK-1247 3.0 01:35:11 10° WNW 01:38:13 48° SSW 01:41:15 10° SE
STARLINK-1227 3.0 01:35:39 10° WNW 01:38:39 48° SSW 01:41:39 10° SE
Meteor 2-5 Rocket 4.3 01:35:17 20° SW 01:38:48 44° WNW 01:44:08 10° N
STARLINK-1226 3.0 01:36:30 10° WNW 01:39:31 47° SSW 01:42:32 10° SE
STARLINK-1224 4.2 01:35:32 10° WNW 01:39:39 60° N 01:43:45 10° E
STARLINK-1215 3.0 01:37:27 10° WNW 01:40:28 47° SSW 01:43:28 10° SE
STARLINK-52 3.7 01:39:41 30° S 01:40:31 36° SSE 01:43:30 10° ENE
USA 81 4.4 01:36:19 16° S 01:40:33 63° E 01:45:47 10° NNE
STARLINK-1217 3.1 01:39:13 10° WNW 01:42:13 45° SSW 01:45:13 10° SE
STARLINK-1208 3.5 01:38:19 10° WNW 01:42:28 87° SSW 01:46:38 10° ESE
STARLINK-1229 3.1 01:40:09 10° WNW 01:43:09 45° SSW 01:46:09 10° SE
NPP 3.9 01:38:24 10° NNE 01:43:47 68° ESE 01:47:57 17° S
STARLINK-1270 3.1 01:41:00 10° WNW 01:44:01 44° SSW 01:47:00 10° SE
STARLINK-1225 4.2 01:40:32 10° WNW 01:44:39 60° N 01:48:46 10° E
STARLINK-1189 3.1 01:42:52 10° WNW 01:45:51 43° SSW 01:48:49 10° SE
STARLINK-1188 3.2 01:43:44 10° WNW 01:46:44 42° SSW 01:49:42 10° SE
STARLINK-1235 3.4 01:44:29 10° W 01:47:20 34° SSW 01:50:12 10° SSE
STARLINK-1271 3.5 01:43:19 10° WNW 01:47:28 83° SSW 01:51:38 10° ESE
STARLINK-1187 3.3 01:44:53 10° WNW 01:47:47 37° SSW 01:50:42 10° SE
Cosmos 1898 Rocket 3.9 01:42:40 10° NNW 01:48:01 67° ENE 01:53:18 10° SE
Cosmos 2058 Rocket 4.4 01:45:25 10° NNW 01:49:05 26° W 01:51:01 19° SW
STARLINK-1191 3.2 01:46:14 10° WNW 01:49:10 40° SSW 01:52:06 10° SE
Lacrosse 4 Rocket 3.4 01:45:35 10° NNW 01:49:33 32° NE 01:53:25 10° ESE
STARLINK-1230 4.2 01:45:31 10° WNW 01:49:38 61° N 01:53:45 10° E
Starlink 7 placeholder 1.6 01:49:43 65° W 01:49:55 80° NNW 01:51:53 10° ENE
STARLINK-1221 3.2 01:47:06 10° WNW 01:50:02 40° SSW 01:52:58 10° SE
STARLINK-1222 3.2 01:48:00 10° WNW 01:50:56 39° SSW 01:53:51 10° SE
STARLINK-1214 3.3 01:48:55 10° WNW 01:51:50 38° SSW 01:54:45 10° SE
STARLINK-1154 3.5 01:48:18 10° WNW 01:52:27 79° SSW 01:56:36 10° ESE
Cosmos 1656 4.4 01:48:20 15° S 01:52:45 46° ESE 01:58:07 10° NE
SJ 16-02 1.4 01:49:10 10° NNW 01:53:38 80° ENE 01:58:04 10° SSE
STARLINK-1243 4.1 01:50:30 10° WNW 01:54:38 62° N 01:58:45 10° E
CZ-4C R/B 3.8 01:50:52 10° SSE 01:54:44 22° ESE 01:59:06 10° ENE
Cosmos 2084 3.8 01:52:18 22° SSW 01:55:05 59° SE 01:59:29 10° NE
SL-14 R/B 4.5 01:54:05 19° WSW 01:56:08 29° WNW 01:59:34 10° N
SL-08 ROCKET BODY 4.4 01:52:04 19° SSW 01:56:24 68° WNW 02:02:16 10° N
STARLINK-1197 3.5 01:53:17 10° WNW 01:57:25 76° SSW 02:01:34 10° ESE
Cosmos 1937 Rocket 4.1 01:53:05 10° NNW 01:58:16 60° ENE 02:03:28 10° SE
Cosmos 1300 4.1 01:55:30 10° NW 01:58:32 23° W 02:00:00 18° WSW
STARLINK-1236 4.1 01:55:30 10° WNW 01:59:38 63° N 02:03:45 10° E
COSMOS 2455 3.5 01:54:47 13° WSW 01:59:57 51° NW 02:05:51 10° NNE
Meteor 2-10 Rocket 3.5 01:55:15 10° NNW 02:00:40 86° W 02:05:50 10° S
STARLINK-1198 3.5 01:58:14 10° WNW 02:02:22 72° SSW 02:06:30 10° ESE
Cosmos 921 Rocket 3.5 02:00:21 19° SW 02:03:08 50° WNW 02:07:21 10° NNE
Cosmos 1709 Rocket 4.0 02:01:48 14° S 02:07:10 87° E 02:13:20 10° N
STARLINK-1199 3.5 02:03:15 10° WNW 02:07:22 68° SSW 02:11:30 10° SE
Cosmos 1626 Rocket 4.1 02:06:42 19° SW 02:09:33 45° WNW 02:13:45 10° N
STARLINK-1269 4.0 02:05:27 10° WNW 02:09:35 66° N 02:13:44 10° E
Cosmos 1626 4.0 02:09:03 13° WSW 02:11:10 20° WNW 02:13:57 10° NNW
STARLINK-60 3.0 02:08:52 15° WSW 02:11:26 80° NNW 02:14:39 10° ENE
STARLINK-1210 3.5 02:08:13 10° WNW 02:12:20 64° SSW 02:16:26 10° SE
STARLINK-1200 4.0 02:10:28 10° WNW 02:14:36 68° N 02:18:44 10° E
Cosmos 2219 3.4 02:10:05 10° NW 02:15:33 50° WSW 02:20:57 10° S
STARLINK-1320 4.2 02:14:52 18° S 02:16:23 27° SE 02:19:05 10° E
STARLINK-1322 4.2 02:15:11 18° S 02:16:43 27° SE 02:19:26 10° E
STARLINK-1324 4.2 02:15:32 18° S 02:17:04 27° SE 02:19:47 10° E
STARLINK-1219 3.6 02:13:12 10° WNW 02:17:18 60° SSW 02:21:23 10° SE
STARLINK-1294 4.2 02:15:47 18° S 02:17:21 27° SE 02:20:05 10° E
STARLINK-1261 4.2 02:16:09 18° S 02:17:43 27° SE 02:20:26 10° E
STARLINK-1325 4.2 02:16:30 18° S 02:18:05 27° SE 02:20:48 10° E
STARLINK-1333 4.2 02:16:48 18° S 02:18:23 28° SE 02:21:07 10° E
STARLINK-1334 4.1 02:17:07 18° S 02:18:43 28° SE 02:21:27 10° E
STARLINK-1326 4.1 02:17:28 18° SSW 02:19:04 28° SE 02:21:48 10° E
STARLINK-1323 4.1 02:17:47 18° SSW 02:19:24 28° SE 02:22:09 10° E
STARLINK-1192 3.9 02:15:27 10° WNW 02:19:35 70° NNE 02:23:44 10° E
STARLINK-1338 4.4 02:17:39 17° SSW 02:19:39 29° SE 02:22:43 10° E
STARLINK-1349 4.1 02:18:06 18° SSW 02:19:44 28° SE 02:22:29 10° E
STARLINK-1336 4.1 02:18:28 18° SSW 02:20:07 28° SE 02:22:52 10° E
Cosmos 1980 Rocket 4.0 02:15:48 10° SSE 02:20:13 24° ESE 02:24:39 10° NE
STARLINK-1331 4.1 02:18:45 18° SSW 02:20:24 28° SE 02:23:09 10° E
STARLINK-1344 4.1 02:19:05 18° SSW 02:20:45 29° SE 02:23:30 10° E
STARLINK-1343 4.1 02:19:25 18° SSW 02:21:05 29° SE 02:23:51 10° E
STARLINK-1346 4.1 02:19:43 18° SSW 02:21:26 29° SE 02:24:15 10° E
STARLINK-1328 4.1 02:20:05 18° SSW 02:21:47 29° SE 02:24:32 10° E
STARLINK-1354 4.1 02:20:22 18° SSW 02:22:05 29° SE 02:24:51 10° E
STARLINK-1211 3.6 02:18:10 10° WNW 02:22:15 57° SSW 02:26:19 10° SE
STARLINK-1347 4.1 02:20:44 17° SSW 02:22:27 29° SE 02:25:13 10° E
STARLINK-1357 4.0 02:21:01 17° SSW 02:22:45 30° SE 02:25:32 10° E
Cosmos 1328 4.0 02:19:19 11° S 02:23:04 69° E 02:27:03 10° NNE
STARLINK-1335 4.0 02:21:22 17° SSW 02:23:06 30° SE 02:25:54 10° E
STARLINK-1327 4.0 02:21:41 17° SSW 02:23:26 30° SE 02:26:13 10° E
STARLINK-1371 4.3 02:21:31 16° SSW 02:23:40 31° SE 02:26:47 10° E
STARLINK-1340 4.0 02:22:01 17° SSW 02:23:48 30° SE 02:26:35 10° E
STARLINK-1356 4.0 02:22:21 17° SSW 02:24:07 30° SE 02:26:55 10° E
STARLINK-1345 4.0 02:22:41 17° SSW 02:24:28 30° SE 02:27:16 10° E
ERBS 4.2 02:21:25 10° NW 02:24:29 33° NNE 02:27:34 10° E
STARLINK-1244 3.9 02:20:25 10° WNW 02:24:34 72° NNE 02:28:43 10° E
Cosmos 192 4.4 02:20:35 15° SSW 02:24:42 79° WNW 02:29:42 10° NNE
STARLINK-1355 4.0 02:22:59 17° SSW 02:24:47 31° SE 02:27:36 10° E
STARLINK-1321 4.0 02:23:18 17° SSW 02:25:07 31° SE 02:27:56 10° E
STARLINK-1358 4.0 02:23:39 17° SSW 02:25:29 31° SE 02:28:17 10° E
ERS-2 2.9 02:22:02 10° SSE 02:25:37 53° ENE 02:29:12 10° N
STARLINK-1341 4.2 02:23:29 16° SSW 02:25:42 32° SE 02:28:51 10° E
STARLINK-1332 4.0 02:23:57 17° SSW 02:25:47 31° SE 02:28:36 10° E
STARLINK-1348 4.0 02:24:18 17° SSW 02:26:09 31° SE 02:28:58 10° E
STARLINK-1330 4.0 02:24:36 17° SSW 02:26:28 31° SE 02:29:17 10° E
STARLINK-1363 3.9 02:24:56 17° SSW 02:26:48 32° SE 02:29:37 10° E
STARLINK-1337 3.9 02:25:15 17° SSW 02:27:08 32° SE 02:29:58 10° E
STARLINK-1245 3.7 02:23:11 10° WNW 02:27:14 53° SSW 02:31:16 10° SE
STARLINK-1342 3.9 02:25:35 17° SSW 02:27:29 32° SE 02:30:19 10° E
STARLINK-1374 4.2 02:25:26 16° SSW 02:27:44 33° SE 02:30:56 10° E
STARLINK-1364 3.9 02:25:55 17° SSW 02:27:49 32° SE 02:30:40 10° E
AQUA 4.0 02:23:18 10° N 02:28:01 63° WNW 02:32:11 13° SSW
STARLINK-1376 3.9 02:26:15 17° SSW 02:28:10 32° SE 02:31:01 10° E
Cosmos 1812 Rocket 4.5 02:24:15 10° NNW 02:28:16 33° W 02:31:37 14° SSW
STARLINK-1360 3.9 02:26:30 17° SSW 02:28:26 32° SE 02:31:17 10° E
STARLINK-1361 3.9 02:26:56 17° SSW 02:28:52 33° SE 02:31:43 10° E
STARLINK-1367 3.9 02:27:10 16° SSW 02:29:08 33° SE 02:32:02 10° E
STARLINK-1366 3.9 02:27:33 16° SSW 02:29:30 33° SE 02:32:22 10° E
STARLINK-1138 3.9 02:25:24 10° WNW 02:29:33 74° NNE 02:33:42 10° E
STARLINK-1339 4.2 02:27:27 16° SSW 02:29:48 34° SE 02:33:01 10° E
SL-4 R/B 2.4 02:25:09 10° WSW 02:30:00 90° WNW 02:34:40 10° ENE
CZ-4B R/B 3.8 02:25:29 10° N 02:30:31 60° WNW 02:35:12 12° SSW
Cosmos 2297 Rocket 2.5 02:25:41 10° NW 02:31:04 47° WSW 02:36:26 10° S
STARLINK-1377 4.1 02:29:28 15° SSW 02:31:54 35° SE 02:35:08 10° ENE
STARLINK-1233 3.8 02:28:10 10° WNW 02:32:11 50° SSW 02:36:12 10° SE
STARLINK-1203 3.9 02:28:12 10° WNW 02:32:25 76° NNE 02:36:38 10° ESE
STARLINK-1353 4.1 02:31:17 15° SSW 02:33:45 36° SE 02:36:58 10° ENE
STARLINK-1143 3.8 02:30:23 10° WNW 02:34:33 77° NNE 02:38:42 10° ESE
Cosmos 2082 3.7 02:29:12 10° NNW 02:34:54 80° WSW 02:40:31 10° SSE
STARLINK-1375 4.0 02:33:04 15° SSW 02:35:36 37° SE 02:38:51 10° ENE
Cosmos 990 Rocket 4.2 02:31:50 10° NNW 02:36:56 52° WSW 02:42:00 10° S
STARLINK-1204 3.8 02:33:10 10° WNW 02:37:10 47° SSW 02:41:08 10° SE
CBERS-1 4.1 02:32:17 10° NNE 02:37:25 74° WNW 02:42:28 10° SSW
ATLAS CENTAUR R/B 2.9 02:33:56 10° W 02:37:41 28° NW 02:41:13 10° NNE
STARLINK-1350 4.0 02:35:22 14° SSW 02:37:59 38° SSE 02:41:15 10° ENE
Cosmos 540 Rocket 4.4 02:33:24 10° S 02:38:15 43° ESE 02:43:06 10° NE
FALCON 9 DEB 3.1 02:35:24 13° WSW 02:38:22 70° SSE 02:41:49 10° ENE
STARLINK-1241 3.8 02:35:22 10° WNW 02:39:32 79° NNE 02:43:41 10° ESE
STARLINK-29 2.9 02:36:59 11° WSW 02:40:05 86° NNW 02:43:17 10° ENE
STARLINK-1352 3.9 02:37:40 14° SW 02:40:24 40° SSE 02:43:44 10° ENE
Cosmos 1455 3.0 02:37:39 10° NNW 02:41:04 33° W 02:44:16 11° SSW
STARLINK-1238 3.9 02:38:08 10° WNW 02:42:06 44° SSW 02:46:02 10° SE
Cosmos 1825 Rocket 3.6 02:38:21 11° SSW 02:42:29 66° WNW 02:46:49 10° N
STARLINK-1368 3.9 02:39:45 13° SW 02:42:34 41° SSE 02:45:55 10° ENE
STARLINK-1369 3.8 02:41:37 13° SW 02:44:29 42° SSE 02:47:48 10° ENE
STARLINK-1239 3.7 02:40:20 10° WNW 02:44:30 82° NNE 02:48:40 10° ESE
Meteor 1-28 Rocket 3.3 02:41:38 10° SSE 02:45:25 82° ENE 02:49:12 10° NNW
ATLAS CENTAUR R/B 2.9 02:42:46 10° W 02:45:40 30° SW 02:51:30 10° SSE
SL-16 R/B 3.6 02:41:06 11° SSW 02:45:57 27° W 02:51:07 10° NW
Cosmos 2263 Rocket 3.8 02:41:24 10° NNW 02:46:43 40° NE 02:51:58 10° ESE
STARLINK-1372 3.8 02:43:58 13° SW 02:46:56 44° SSE 02:50:19 10° ENE
STARLINK-1201 4.0 02:43:09 10° WNW 02:47:03 41° SW 02:50:58 10° SE
Cosmos 2074 Rocket 4.3 02:42:14 10° S 02:48:30 75° E 02:54:48 10° NNE
Cosmos 372 Rocket 4.3 02:43:31 10° NNW 02:48:38 71° ENE 02:53:46 10° SSE
STARLINK-1378 3.7 02:46:05 12° SW 02:49:10 46° SSE 02:52:34 10° ENE
GP-B 3.7 02:45:09 10° NNW 02:49:19 40° W 02:53:28 10° SSW
STARLINK-1240 3.7 02:45:20 10° WNW 02:49:30 85° NNE 02:53:39 10° ESE
STARLINK-1329 3.7 02:46:35 12° SW 02:49:41 46° SSE 02:53:06 10° ENE
IRS-1D 3.8 02:45:01 10° N 02:50:17 60° WNW 02:55:29 10° SSW
STARLINK-1365 3.7 02:47:17 12° SW 02:50:24 48° SSE 02:53:49 10° ENE
Cosmos 841 Rocket 4.0 02:45:20 10° S 02:50:29 59° ESE 02:55:39 10° NNE
STARLINK-1379 3.7 02:48:13 12° SW 02:51:22 47° SSE 02:54:48 10° ENE
STARLINK-1362 3.7 02:48:47 12° SW 02:51:58 48° SSE 02:55:24 10° ENE
STARLINK-1206 4.1 02:48:09 10° WNW 02:52:01 38° SW 02:55:52 10° SSE
Cosmos-2242 3.6 02:48:38 10° NNW 02:52:38 39° W 02:56:35 10° SSW
Cosmos 1400 Rocket 2.8 02:49:45 10° NNW 02:53:52 80° W 02:58:01 10° S
STARLINK-1373 3.6 02:50:59 11° SW 02:54:15 49° SSE 02:57:42 10° ENE
STARLINK-1216 3.6 02:50:18 10° WNW 02:54:29 89° NNE 02:58:38 10° ESE
Cosmos 2221 3.4 02:50:24 10° N 02:54:39 52° ENE 02:58:53 10° SSE
COBE Rocket 3.9 02:50:35 10° S 02:55:30 80° WSW 03:00:37 10° NNW
ATLAS 3B R/B 4.2 02:52:10 10° WNW 02:55:35 14° WSW 02:59:03 10° SW
STARLINK-1390 3.6 02:52:59 11° SW 02:56:18 51° SSE 02:59:45 10° ENE
STARLINK-1205 4.2 02:53:09 10° WNW 02:56:58 36° SW 03:00:46 10° SSE
STARLINK-1237 3.6 02:55:18 10° WNW 02:59:28 88° SSW 03:03:37 10° ESE
RESURS DK-1 4.2 02:56:17 10° W 02:59:33 22° NW 03:02:51 10° N
Cosmos 2184 Rocket 4.1 02:53:49 10° S 03:00:01 86° E 03:06:13 10° N
SL-08 R/B 3.6 02:56:30 10° S 03:01:03 49° W 03:05:35 10° NNW
CZ-4C R/B 3.2 02:57:47 10° SSE 03:01:22 80° ENE 03:05:02 10° NNW
STARLINK-1218 4.3 02:58:09 10° WNW 03:01:54 34° SW 03:05:39 10° SSE
STARLINK-1202 3.6 03:00:17 10° WNW 03:04:27 84° SSW 03:08:36 10° ESE
IRS-P3 4.3 03:00:37 10° N 03:05:54 62° WNW 03:11:09 10° SSW
Cosmos 1703 4.0 03:02:27 10° SW 03:06:09 38° WNW 03:09:53 10° N
CZ-2D R/B 3.4 03:01:58 10° N 03:06:19 27° WNW 03:10:37 10° WSW
Cosmos 2227 Rocket 3.0 03:01:35 10° NW 03:06:27 30° WSW 03:11:18 10° SSW
STARLINK-1254 4.3 03:03:10 10° W 03:06:52 31° SW 03:10:33 10° SSE
ADEOS II 2.4 03:03:53 10° N 03:09:00 54° WNW 03:14:07 10° SW
Cosmos 1763 Rocket 3.7 03:04:13 10° SW 03:09:17 59° WNW 03:14:20 10° NNE
Cosmos 2150 Rocket 4.2 03:05:27 10° NNW 03:10:42 82° ENE 03:15:51 10° SSE
Cosmos 1697 Rocket 2.8 03:05:40 10° SSW 03:11:21 86° WNW 03:17:04 10° NNE
STARLINK-1231 4.4 03:08:12 10° W 03:11:50 29° SW 03:15:26 10° SSE
Cosmos 1315 Rocket 3.3 03:10:01 10° N 03:13:56 64° ENE 03:17:49 10° SSE
STARLINK-1246 3.6 03:10:14 10° WNW 03:14:23 77° SSW 03:18:32 10° ESE
Resurs 1-4 Rocket 3.6 03:11:40 10° N 03:15:44 23° WNW 03:19:47 10° WSW
